ONEWEB-0066, 45424

Orbit data source: Space-Track

ONEWEB-0066, 45424 is a payload satellite owned by One Web (UK) in LEO that was launched on Sat, 21 Mar 2020 UTC via a SOYUZ-2-1B launch vehicle from the Tyuratam Missile And Space Complex (TTMTR). Payload-class satellites include a variety of spacecraft equipped with specific instruments for various scientific and technological missions. These include communications satellites like Starlink; space stations such as the ISS; scientific satellites like the Hubble; Earth observation satellites from companies like Planet Labs, Umbra, and HawkEye 360; GPS; miniature CubeSats for education and research; and military/defense satellites.

Loading next visibility...
Identifier
45424, 2020-020A
Orbit
LEO
Last TLE update
18 hours ago
Origin
Manufacturer
One Web
Mission
Operational Commercial Communications
Bus & Motor
ARROW, Unknown motor
Mass
148 kg wet, ~140 kg dry
Launch date (UTC)
2020-03-21 (5 years ago)
Launch vehicle
SOYUZ-2-1B
Launch site
Tyuratam Missile And Space Complex (TTMTR)
Object type
Payload
Rocket body
Debris
Shape & HBR
Trap Box + 2 Pan, 5 m
Radar Cross Section
2.957 m², Large (>1 m²)

Expand to show TLE details & history

TLE from 18 hours ago
0 ONEWEB-0066
1 45424U 20020A   25128.46862316  .00000084  00000-0  20036-3 0  9993
2 45424  87.8808 101.7320 0001807  74.9547 285.1781 13.11413082249636
Epoch: 2025-05-08T11:14Z
Definitive object data (Epoch: 2025-05-08T11:14:49.041Z)
Latitude
0.00002°
Longitude
66.48898°
Altitude
1,220.227 km
Speed
7.244 km/s
True Right ascension
06h 46m 55s
True Declination
0° 00' 00"
Sunlit
Object was in daylight at TLE epoch
Visualization TLE readout
Latitude
-35.03256°
Longitude
64.85915°
Altitude
1,231.35 km
Speed
7.238 km/s
Apparent Right ascension
04h 27m 52s
Apparent Declination
-43° 55' 27"
Sunlit
Object is in daylight
Visualization observer readout
Local Sidereal Time
13:31:29
Azimuth
248.232° W
Elevation
-57.338°
Doppler factor
1
Orbital elements
Apogee altitude
1,216.188 km
Perigee altitude
1,213.444 km
Semi-major axis
7,592.953 km
Eccentricity
0.0001807
Inclination
87.8808°
RAAN
101.732°
Arg. of periapsis
74.9547°
True anomaly
285.15811°
Mean anomaly
285.1781°
Eccentric anomaly
285.16811°
Mean motion
3.2804 °/min
BSTAR
0.00020036
Orbital period
109.74 mins
Loading maneuver chart data...
Loading SW <> Apogee altitude chart data...
Loading historical data...
Loading historical data...
Loading historical data...
Loading historical data...
Loading historical data...
Loading historical data...
Loading historical data...

ONEWEB-0066 Visibility forecast

Observer location: undefined°, undefined°

Span
Click to sort rows by Start time (UTC) header in descending order
Start Az.
Max El. time (UTC)
Max El. Az.
Max El.
End time (UTC)
End Az.
14 mins2025-05-09 09:48:50.131Z8.814° NNE2025-05-09 09:55:50.131Z84.712° E38.906°2025-05-09 10:02:50.131Z161.082° S
10 mins2025-05-09 11:40:50.131Z328.447° NNW2025-05-09 11:44:50.131Z288.594° WNW24.359°2025-05-09 11:50:50.131Z230.775° WSW
12 mins2025-05-09 22:08:50.131Z159.428° S2025-05-09 22:14:50.131Z74.224° E40.773°2025-05-09 22:20:50.131Z9.623° NNE
9 mins2025-05-10 00:00:50.131Z242.284° WSW2025-05-10 00:04:50.131Z282.818° WNW22.242°2025-05-10 00:09:50.131Z330.61° NNW
|